LEGION 2

Last updated on Tue Sep 16 2025 00:02:31 GMT+0000 (Coordinated Universal Time)

1 59626U 24081B 25258.50120938 .00005082 00000+0 26345-3 0 9990 2 59626 97.5298 333.8812 0000841 318.1010 42.0158 15.16618242 75902
UTC large
Height (km)
Speed (km/s)
/
Latitude / Longitude
Inclination (degrees)
Orbital Period (minutes)
Azimuth
Elevation
Range (km)
Doppler Factor

Next 0 passes for location: London (51.5072 / 0.1276)

Sorry there are no passes over London.